RBO78 KSMF-KGEG

Flight info

Callsign RBO78
Flight time 1h 36m
Altitude 36000
Route RBL/N0461F370 LKV ALW GEG
Aircraft B738/M-SDE2E3FGHIRWXY/LB1

Departure

Time 2026-05-04 03:30
Airport Sacramento International Airport (KSMF)

Arrival

Time 2026-05-04 05:07
Airport Spokane International Airport (KGEG)
Time Latitude Longitude Altitude Speed Heading
2026-05-04 02:36 38.69630 -121.59460 28 ft 0 kts 180°
2026-05-04 03:21 38.69631 -121.59460 28 ft 1 kts 180°
2026-05-04 03:22 38.69645 -121.59459 28 ft 2 kts 180°
2026-05-04 03:22 38.69661 -121.59459 28 ft 2 kts 180°
2026-05-04 03:22 38.69676 -121.59459 28 ft 2 kts 180°
2026-05-04 03:22 38.69690 -121.59455 28 ft 2 kts 219°
2026-05-04 03:23 38.69699 -121.59439 28 ft 2 kts 257°
2026-05-04 03:23 38.69699 -121.59420 28 ft 2 kts 276°
2026-05-04 03:23 38.69698 -121.59401 28 ft 2 kts 269°
2026-05-04 03:23 38.69698 -121.59383 28 ft 2 kts 271°
2026-05-04 03:24 38.69698 -121.59377 28 ft 0 kts 271°
2026-05-04 03:26 38.69698 -121.59393 28 ft 7 kts 270°
2026-05-04 03:26 38.69699 -121.59495 28 ft 12 kts 270°
2026-05-04 03:26 38.69699 -121.59593 28 ft 10 kts 270°
2026-05-04 03:26 38.69700 -121.59713 28 ft 14 kts 271°
2026-05-04 03:27 38.69706 -121.59821 28 ft 10 kts 293°
2026-05-04 03:27 38.69795 -121.59862 28 ft 18 kts 360°
2026-05-04 03:27 38.69926 -121.59860 28 ft 20 kts
2026-05-04 03:27 38.70065 -121.59857 28 ft 19 kts
2026-05-04 03:28 38.70191 -121.59856 28 ft 17 kts
2026-05-04 03:28 38.70335 -121.59853 28 ft 22 kts
2026-05-04 03:28 38.70479 -121.59849 28 ft 19 kts
2026-05-04 03:28 38.70600 -121.59848 28 ft 15 kts
2026-05-04 03:29 38.70695 -121.59860 28 ft 11 kts 325°
2026-05-04 03:29 38.70720 -121.59956 28 ft 11 kts 271°
2026-05-04 03:29 38.70717 -121.60052 28 ft 9 kts 256°
2026-05-04 03:29 38.70635 -121.60111 28 ft 25 kts 180°
2026-05-04 03:30 38.70166 -121.60120 28 ft 108 kts 181°
2026-05-04 03:30 38.69164 -121.60124 163 ft 167 kts 181°
2026-05-04 03:30 38.68053 -121.60123 1189 ft 162 kts 182°
2026-05-04 03:30 38.66981 -121.60571 1820 ft 174 kts 224°
2026-05-04 03:31 38.66502 -121.62005 2318 ft 186 kts 271°
2026-05-04 03:31 38.66802 -121.63638 2871 ft 199 kts 297°
2026-05-04 03:31 38.67616 -121.65116 3494 ft 212 kts 318°
2026-05-04 03:31 38.68859 -121.66162 4195 ft 221 kts 341°
2026-05-04 03:32 38.70424 -121.66499 4690 ft 239 kts
2026-05-04 03:32 38.72005 -121.65823 5409 ft 248 kts 31°
2026-05-04 03:32 38.73566 -121.64749 6101 ft 263 kts 24°
2026-05-04 03:32 38.75372 -121.64168 6852 ft 277 kts
2026-05-04 03:33 38.77322 -121.64222 7730 ft 284 kts 356°
2026-05-04 03:33 38.79248 -121.64629 8670 ft 287 kts 348°
2026-05-04 03:33 38.81218 -121.65310 9417 ft 297 kts 343°
2026-05-04 03:33 38.83155 -121.66112 10377 ft 297 kts 342°
2026-05-04 03:34 38.85131 -121.66982 11024 ft 309 kts 342°
2026-05-04 03:34 38.87163 -121.67892 11825 ft 314 kts 342°
2026-05-04 03:34 38.89271 -121.68847 12384 ft 329 kts 341°
2026-05-04 03:34 38.91491 -121.69881 12806 ft 346 kts 341°
2026-05-04 03:35 38.93779 -121.70960 13234 ft 362 kts 341°
2026-05-04 03:35 38.96193 -121.72096 13716 ft 377 kts 341°
2026-05-04 03:35 38.98679 -121.73264 14167 ft 391 kts 341°
2026-05-04 03:35 39.01293 -121.74487 14714 ft 402 kts 341°
2026-05-04 03:36 39.03944 -121.75720 15340 ft 411 kts 342°
2026-05-04 03:36 39.06630 -121.76930 16152 ft 412 kts 343°
2026-05-04 03:36 39.09351 -121.78143 16680 ft 422 kts 343°
2026-05-04 03:36 39.12124 -121.79333 17611 ft 420 kts 344°
2026-05-04 03:37 39.14947 -121.80537 18160 ft 428 kts 344°
2026-05-04 03:37 39.17758 -121.81744 19069 ft 426 kts 345°
2026-05-04 03:37 39.20589 -121.82952 19585 ft 433 kts 345°
2026-05-04 03:37 39.23433 -121.84190 20241 ft 437 kts 345°
2026-05-04 03:38 39.26302 -121.85442 20934 ft 438 kts 345°
2026-05-04 03:38 39.29194 -121.86701 21567 ft 441 kts 346°
2026-05-04 03:38 39.32130 -121.87966 22151 ft 445 kts 346°
2026-05-04 03:38 39.35038 -121.89230 22717 ft 448 kts 346°
2026-05-04 03:39 39.37999 -121.90522 23271 ft 452 kts 346°
2026-05-04 03:39 39.41013 -121.91833 23824 ft 456 kts 346°
2026-05-04 03:39 39.44025 -121.93143 24420 ft 458 kts 346°
2026-05-04 03:39 39.47051 -121.94485 24919 ft 462 kts 346°
2026-05-04 03:40 39.50063 -121.95840 25506 ft 464 kts 345°
2026-05-04 03:40 39.53134 -121.97246 26019 ft 468 kts 345°
2026-05-04 03:40 39.56220 -121.98645 26334 ft 475 kts 345°
2026-05-04 03:40 39.59326 -122.00062 27100 ft 472 kts 345°
2026-05-04 03:41 39.62421 -122.01466 27620 ft 474 kts 345°
2026-05-04 03:41 39.65557 -122.02853 27996 ft 479 kts 346°
2026-05-04 03:41 39.68668 -122.04240 28859 ft 473 kts 345°
2026-05-04 03:41 39.71739 -122.05636 29640 ft 468 kts 345°
2026-05-04 03:42 39.74789 -122.07051 30455 ft 462 kts 344°
2026-05-04 03:42 39.77817 -122.08483 31048 ft 460 kts 344°
2026-05-04 03:42 39.80861 -122.09943 31315 ft 465 kts 344°
2026-05-04 03:42 39.83916 -122.11391 31789 ft 464 kts 345°
2026-05-04 03:43 39.86946 -122.12824 32444 ft 459 kts 345°
2026-05-04 03:43 39.89924 -122.14236 32821 ft 460 kts 344°
2026-05-04 03:43 39.92928 -122.15691 33183 ft 462 kts 344°
2026-05-04 03:43 39.95935 -122.17166 33485 ft 464 kts 344°
2026-05-04 03:44 39.98920 -122.18620 34209 ft 456 kts 345°
2026-05-04 03:44 40.01890 -122.19968 34706 ft 451 kts 347°
2026-05-04 03:44 40.04941 -122.21014 34817 ft 451 kts 354°
2026-05-04 03:44 40.08020 -122.21519 35109 ft 444 kts
2026-05-04 03:45 40.11102 -122.21467 35350 ft 440 kts
2026-05-04 03:45 40.16996 -122.19673 35661 ft 435 kts 25°
2026-05-04 03:45 40.19738 -122.17950 35771 ft 436 kts 32°
2026-05-04 03:46 40.22357 -122.15962 35952 ft 437 kts 33°
2026-05-04 03:46 40.24969 -122.13934 36184 ft 438 kts 33°
2026-05-04 03:46 40.27561 -122.11926 36370 ft 440 kts 33°
2026-05-04 03:46 40.30217 -122.09860 36672 ft 439 kts 32°
2026-05-04 03:47 40.32840 -122.07859 36913 ft 440 kts 32°
2026-05-04 03:47 40.38172 -122.03889 36965 ft 445 kts 31°
2026-05-04 03:48 40.43544 -121.99954 36928 ft 443 kts 31°
2026-05-04 03:48 40.48949 -121.96036 36966 ft 442 kts 31°
2026-05-04 03:49 40.54327 -121.92194 36930 ft 444 kts 30°
2026-05-04 03:49 40.59728 -121.88330 36896 ft 443 kts 30°
2026-05-04 03:50 40.65125 -121.84513 36972 ft 443 kts 29°
2026-05-04 03:50 40.70577 -121.80760 36985 ft 441 kts 29°
2026-05-04 03:51 40.76000 -121.77021 37002 ft 441 kts 29°
2026-05-04 03:51 40.81432 -121.73231 36994 ft 443 kts 29°
2026-05-04 03:52 40.86822 -121.69413 37001 ft 441 kts 30°
2026-05-04 03:52 40.92202 -121.65536 36998 ft 441 kts 30°
2026-05-04 03:53 40.97562 -121.61666 36975 ft 440 kts 30°
2026-05-04 03:53 41.02910 -121.57816 36986 ft 439 kts 30°
2026-05-04 03:54 41.08294 -121.53944 36974 ft 439 kts 30°
2026-05-04 03:54 41.13651 -121.50120 36996 ft 440 kts 29°
2026-05-04 03:55 41.19056 -121.46281 36999 ft 438 kts 29°
2026-05-04 03:55 41.24427 -121.42463 36962 ft 440 kts 29°
2026-05-04 03:56 41.29789 -121.38622 37012 ft 437 kts 29°
2026-05-04 03:56 41.35109 -121.34812 37018 ft 438 kts 30°
2026-05-04 03:57 41.40467 -121.30957 36996 ft 437 kts 30°
2026-05-04 03:57 41.45795 -121.27113 37036 ft 437 kts 30°
2026-05-04 03:58 41.53826 -121.21373 36996 ft 438 kts 30°
2026-05-04 03:58 41.59180 -121.17490 36990 ft 437 kts 30°
2026-05-04 03:59 41.64522 -121.13596 36980 ft 437 kts 30°
2026-05-04 03:59 41.69794 -121.09708 36996 ft 435 kts 30°
2026-05-04 04:00 41.75088 -121.05704 36983 ft 436 kts 31°
2026-05-04 04:00 41.80352 -121.01715 37030 ft 437 kts 30°
2026-05-04 04:01 41.85614 -120.97730 36975 ft 435 kts 30°
2026-05-04 04:01 41.90924 -120.93767 37020 ft 436 kts 29°
2026-05-04 04:02 41.96247 -120.89893 37003 ft 436 kts 29°
2026-05-04 04:02 42.01567 -120.86043 36986 ft 438 kts 29°
2026-05-04 04:03 42.06884 -120.82206 37035 ft 436 kts 29°
2026-05-04 04:03 42.12246 -120.78329 37046 ft 435 kts 29°
2026-05-04 04:04 42.17547 -120.74403 36997 ft 435 kts 30°
2026-05-04 04:04 42.22803 -120.70469 37042 ft 436 kts 30°
2026-05-04 04:05 42.28100 -120.66468 36986 ft 434 kts 30°
2026-05-04 04:05 42.33351 -120.62440 37045 ft 436 kts 30°
2026-05-04 04:06 42.38613 -120.58415 37065 ft 434 kts 30°
2026-05-04 04:06 42.43870 -120.54425 37079 ft 434 kts 30°
2026-05-04 04:07 42.49133 -120.50518 37069 ft 434 kts 27°
2026-05-04 04:07 42.54639 -120.47135 37077 ft 434 kts 24°
2026-05-04 04:08 42.60181 -120.43909 37067 ft 433 kts 24°
2026-05-04 04:08 42.65747 -120.40725 37046 ft 437 kts 23°
2026-05-04 04:09 42.71346 -120.37574 37037 ft 435 kts 23°
2026-05-04 04:09 42.76883 -120.34457 37052 ft 434 kts 24°
2026-05-04 04:10 42.82452 -120.31273 36992 ft 434 kts 24°
2026-05-04 04:10 42.87980 -120.28046 37079 ft 432 kts 25°
2026-05-04 04:11 42.93511 -120.24805 37075 ft 432 kts 24°
2026-05-04 04:11 42.99015 -120.21600 37051 ft 432 kts 24°
2026-05-04 04:12 43.04542 -120.18363 37020 ft 431 kts 24°
2026-05-04 04:12 43.10055 -120.15103 36991 ft 433 kts 25°
2026-05-04 04:13 43.15535 -120.11835 37107 ft 431 kts 25°
2026-05-04 04:13 43.21079 -120.08618 37006 ft 430 kts 24°
2026-05-04 04:14 43.26546 -120.05445 37030 ft 430 kts 24°
2026-05-04 04:14 43.32042 -120.02190 37008 ft 429 kts 25°
2026-05-04 04:15 43.37495 -119.98895 37002 ft 431 kts 25°
2026-05-04 04:15 43.42976 -119.95600 37025 ft 429 kts 25°
2026-05-04 04:16 43.48449 -119.92303 37040 ft 429 kts 25°
2026-05-04 04:16 43.53919 -119.89012 37003 ft 431 kts 25°
2026-05-04 04:17 43.59358 -119.85733 37032 ft 429 kts 25°
2026-05-04 04:17 43.64829 -119.82455 37162 ft 428 kts 25°
2026-05-04 04:18 43.70336 -119.79208 37007 ft 429 kts 24°
2026-05-04 04:18 43.75800 -119.75976 37077 ft 428 kts 25°
2026-05-04 04:19 43.81227 -119.72713 37067 ft 427 kts 25°
2026-05-04 04:19 43.86653 -119.69372 37124 ft 427 kts 25°
2026-05-04 04:20 43.92122 -119.66029 37106 ft 427 kts 25°
2026-05-04 04:20 43.97572 -119.62730 37027 ft 430 kts 25°
2026-05-04 04:21 44.03022 -119.59437 37154 ft 427 kts 25°
2026-05-04 04:21 44.08466 -119.56099 37054 ft 429 kts 25°
2026-05-04 04:22 44.13903 -119.52734 37061 ft 429 kts 25°
2026-05-04 04:22 44.19333 -119.49400 36965 ft 427 kts 25°
2026-05-04 04:23 44.24738 -119.46088 37046 ft 428 kts 25°
2026-05-04 04:23 44.30144 -119.42717 37019 ft 428 kts 25°
2026-05-04 04:24 44.35601 -119.39359 37028 ft 426 kts 25°
2026-05-04 04:24 44.41019 -119.36046 36984 ft 428 kts 25°
2026-05-04 04:25 44.46456 -119.32730 37040 ft 427 kts 25°
2026-05-04 04:25 44.51890 -119.29376 37030 ft 428 kts 25°
2026-05-04 04:26 44.57298 -119.26019 37001 ft 426 kts 25°
2026-05-04 04:26 44.62684 -119.22626 37037 ft 427 kts 26°
2026-05-04 04:27 44.68079 -119.19173 37033 ft 427 kts 26°
2026-05-04 04:27 44.73481 -119.15727 37031 ft 427 kts 25°
2026-05-04 04:28 44.78880 -119.12316 37016 ft 427 kts 25°
2026-05-04 04:28 44.84271 -119.08948 36982 ft 426 kts 25°
2026-05-04 04:29 44.89722 -119.05627 37188 ft 430 kts 24°
2026-05-04 04:29 44.92428 -119.04000 37032 ft 423 kts 24°
2026-05-04 04:29 44.95119 -119.02382 36742 ft 420 kts 24°
2026-05-04 04:30 44.97803 -119.00766 37323 ft 421 kts 24°
2026-05-04 04:30 45.00501 -118.99129 36671 ft 427 kts 24°
2026-05-04 04:30 45.03198 -118.97491 36833 ft 419 kts 24°
2026-05-04 04:30 45.05894 -118.95847 36963 ft 423 kts 25°
2026-05-04 04:31 45.11306 -118.92435 36987 ft 428 kts 25°
2026-05-04 04:31 45.16653 -118.88963 37016 ft 425 kts 25°
2026-05-04 04:32 45.22029 -118.85436 37044 ft 425 kts 26°
2026-05-04 04:32 45.27388 -118.81915 37019 ft 424 kts 25°
2026-05-04 04:33 45.32716 -118.78449 36986 ft 425 kts 25°
2026-05-04 04:33 45.38094 -118.74962 36926 ft 425 kts 25°
2026-05-04 04:34 45.43465 -118.71506 36940 ft 426 kts 25°
2026-05-04 04:34 45.48798 -118.68076 36961 ft 424 kts 25°
2026-05-04 04:35 45.54196 -118.64626 36974 ft 423 kts 25°
2026-05-04 04:35 45.56858 -118.62932 36871 ft 422 kts 25°
2026-05-04 04:35 45.59525 -118.61223 36965 ft 423 kts 25°
2026-05-04 04:36 45.64890 -118.57775 36924 ft 423 kts 25°
2026-05-04 04:36 45.70204 -118.54273 36925 ft 423 kts 25°
2026-05-04 04:37 45.78188 -118.48940 36697 ft 421 kts 26°
2026-05-04 04:37 45.80839 -118.47177 36608 ft 423 kts 25°
2026-05-04 04:38 45.83501 -118.45453 36805 ft 417 kts 25°
2026-05-04 04:38 45.86166 -118.43735 36829 ft 421 kts 25°
2026-05-04 04:38 45.88821 -118.42033 36992 ft 423 kts 24°
2026-05-04 04:38 45.91487 -118.40323 37092 ft 418 kts 24°
2026-05-04 04:39 45.96830 -118.36862 36920 ft 420 kts 25°
2026-05-04 04:39 46.02120 -118.33433 36899 ft 421 kts 25°
2026-05-04 04:40 46.07467 -118.29988 36859 ft 420 kts 25°
2026-05-04 04:40 46.12962 -118.27193 36885 ft 421 kts 19°
2026-05-04 04:41 46.18542 -118.24728 36873 ft 421 kts 18°
2026-05-04 04:41 46.21320 -118.23531 37001 ft 419 kts 18°
2026-05-04 04:41 46.24113 -118.22300 36914 ft 421 kts 18°
2026-05-04 04:42 46.29720 -118.19809 36929 ft 421 kts 18°
2026-05-04 04:42 46.35292 -118.17342 36860 ft 420 kts 18°
2026-05-04 04:43 46.40864 -118.14881 36656 ft 419 kts 18°
2026-05-04 04:43 46.43617 -118.13669 36207 ft 415 kts 18°
2026-05-04 04:43 46.46360 -118.12457 35749 ft 410 kts 18°
2026-05-04 04:44 46.49061 -118.11270 35052 ft 413 kts 18°
2026-05-04 04:44 46.51816 -118.10069 34285 ft 416 kts 18°
2026-05-04 04:44 46.54588 -118.08865 33482 ft 417 kts 18°
2026-05-04 04:44 46.57362 -118.07656 32768 ft 416 kts 18°
2026-05-04 04:45 46.60095 -118.06440 32008 ft 417 kts 18°
2026-05-04 04:45 46.62865 -118.05196 31252 ft 417 kts 18°
2026-05-04 04:45 46.65631 -118.03945 30391 ft 420 kts 18°
2026-05-04 04:47 46.82435 -117.96376 25144 ft 436 kts 17°
2026-05-04 04:47 46.85338 -117.95091 24329 ft 433 kts 17°
2026-05-04 04:47 46.88199 -117.93828 23767 ft 426 kts 16°
2026-05-04 04:47 46.91010 -117.92577 23092 ft 421 kts 17°
2026-05-04 04:48 46.93769 -117.91316 22411 ft 417 kts 17°
2026-05-04 04:49 47.04601 -117.86256 19699 ft 403 kts 21°
2026-05-04 04:49 47.06985 -117.84202 19087 ft 400 kts 40°
2026-05-04 04:49 47.08762 -117.81130 18573 ft 394 kts 51°
2026-05-04 04:49 47.10389 -117.77948 18413 ft 386 kts 51°
2026-05-04 04:50 47.12012 -117.74805 18398 ft 401 kts 51°
2026-05-04 04:50 47.13736 -117.71513 18008 ft 411 kts 51°
2026-05-04 04:50 47.15499 -117.68176 17391 ft 410 kts 50°
2026-05-04 04:50 47.17226 -117.64912 16862 ft 403 kts 51°
2026-05-04 04:51 47.18921 -117.61676 16113 ft 402 kts 50°
2026-05-04 04:51 47.20621 -117.58443 15260 ft 404 kts 51°
2026-05-04 04:51 47.22303 -117.55219 14755 ft 396 kts 50°
2026-05-04 04:51 47.23961 -117.52035 14328 ft 387 kts 51°
2026-05-04 04:52 47.25587 -117.48903 13774 ft 382 kts 51°
2026-05-04 04:52 47.27166 -117.45846 13276 ft 376 kts 51°
2026-05-04 04:52 47.28714 -117.42832 12856 ft 368 kts 51°
2026-05-04 04:52 47.30241 -117.39851 12432 ft 361 kts 51°
2026-05-04 04:53 47.31730 -117.36942 12126 ft 351 kts 51°
2026-05-04 04:53 47.33155 -117.34122 11863 ft 341 kts 52°
2026-05-04 04:53 47.34557 -117.31336 11564 ft 333 kts 51°
2026-05-04 04:53 47.35911 -117.28638 11168 ft 328 kts 51°
2026-05-04 04:54 47.37243 -117.25982 10953 ft 318 kts 51°
2026-05-04 04:54 47.38547 -117.23379 10728 ft 309 kts 51°
2026-05-04 04:54 47.39796 -117.20888 10455 ft 302 kts 51°
2026-05-04 04:54 47.41038 -117.18432 10299 ft 292 kts 50°
2026-05-04 04:55 47.42229 -117.16077 10073 ft 285 kts 51°
2026-05-04 04:55 47.43397 -117.13767 9783 ft 281 kts 50°
2026-05-04 04:55 47.44561 -117.11467 9433 ft 279 kts 50°
2026-05-04 04:55 47.45728 -117.09153 9068 ft 279 kts 50°
2026-05-04 04:56 47.46873 -117.06889 8687 ft 279 kts 51°
2026-05-04 04:56 47.48031 -117.04573 8277 ft 280 kts 51°
2026-05-04 04:56 47.49167 -117.02267 7861 ft 281 kts 51°
2026-05-04 04:56 47.50308 -116.99933 7517 ft 279 kts 52°
2026-05-04 04:57 47.51440 -116.97610 7163 ft 278 kts 52°
2026-05-04 04:57 47.52581 -116.95282 6699 ft 282 kts 52°
2026-05-04 04:57 47.53739 -116.92929 6304 ft 282 kts 52°
2026-05-04 04:57 47.55006 -116.90830 6123 ft 269 kts 32°
2026-05-04 04:58 47.56715 -116.90095 6007 ft 258 kts 353°
2026-05-04 04:58 47.58282 -116.91235 6031 ft 253 kts 310°
2026-05-04 04:58 47.58966 -116.93565 6056 ft 252 kts 275°
2026-05-04 04:58 47.59049 -116.96151 6150 ft 248 kts 274°
2026-05-04 04:59 47.59140 -116.98682 6161 ft 247 kts 274°
2026-05-04 04:59 47.59219 -117.01228 6115 ft 249 kts 273°
2026-05-04 04:59 47.59277 -117.03709 6463 ft 239 kts 273°
2026-05-04 04:59 47.59331 -117.06174 6432 ft 241 kts 276°
2026-05-04 05:00 47.59610 -117.08607 6379 ft 240 kts 290°
2026-05-04 05:00 47.60266 -117.10857 6237 ft 234 kts 296°
2026-05-04 05:00 47.61712 -117.15165 5548 ft 238 kts 296°
2026-05-04 05:01 47.62450 -117.17348 5301 ft 234 kts 296°
2026-05-04 05:01 47.63165 -117.19519 4955 ft 236 kts 296°
2026-05-04 05:01 47.63914 -117.21680 4588 ft 235 kts 297°
2026-05-04 05:01 47.64685 -117.23811 4236 ft 233 kts 298°
2026-05-04 05:02 47.65451 -117.25880 3965 ft 227 kts 298°
2026-05-04 05:02 47.66198 -117.27883 3706 ft 220 kts 298°
2026-05-04 05:02 47.66920 -117.29806 3457 ft 206 kts 297°
2026-05-04 05:02 47.67541 -117.31596 3288 ft 184 kts 290°
2026-05-04 05:03 47.67789 -117.33308 3255 ft 156 kts 274°
2026-05-04 05:03 47.67863 -117.34801 3249 ft 141 kts 272°
2026-05-04 05:04 47.68033 -117.39188 3158 ft 144 kts 271°
2026-05-04 05:04 47.68062 -117.40675 3131 ft 145 kts 270°
2026-05-04 05:04 47.68059 -117.42170 3099 ft 145 kts 265°
2026-05-04 05:06 47.64087 -117.50345 2620 ft 137 kts 226°
2026-05-04 05:06 47.63417 -117.51369 2448 ft 136 kts 227°
2026-05-04 05:06 47.62765 -117.52360 2344 ft 126 kts 227°
2026-05-04 05:07 47.62319 -117.53033 2355 ft 58 kts 226°
2026-05-04 05:07 47.62145 -117.53294 2358 ft 22 kts 226°
2026-05-04 05:07 47.62062 -117.53457 2361 ft 17 kts 248°
2026-05-04 05:09 47.62307 -117.53543 2359 ft 10 kts 338°
2026-05-04 05:09 47.62371 -117.53507 2358 ft 9 kts 44°
2026-05-04 05:10 47.62416 -117.53459 2358 ft 6 kts
2026-05-04 05:10 47.62443 -117.53490 2358 ft 4 kts 293°
2026-05-04 05:10 47.62452 -117.53521 2358 ft 1 kts 290°
2026-05-04 05:10 47.62455 -117.53532 2359 ft 0 kts 290°
2026-05-04 05:11 47.62456 -117.53537 2359 ft 0 kts 290°
2026-05-04 05:11 47.62457 -117.53539 2359 ft 0 kts 290°
2026-05-04 05:11 47.62458 -117.53542 2359 ft 0 kts 290°